Home > Weather > Makati > Past weeks

Flag for Philippines Weather for the Past 2 Weeks in Makati, Philippines

Now
93 °F

Passing clouds.


Feels Like: 103 °F
Forecast: 83 / 96 °F
Wind: 17 mph from Southeast

Location: National Airport

Current Time: May 4, 2016 at 4:45:28 PM

Latest Report: May 4, 2016 at 4:00 PM


Visibility: N/A

Pressure: 29.77 "Hg

Humidity: 53%

Dew Point: 73 °F

Location of MakatiLocation

Historic Weather in Makati — Graph

°F

Makati Temperature Yesterday

Maximum temperature yesterday: 97 °F (at 12:00 PM)
Minimum temperature yesterday: 84 °F (at 1:00 AM)
Average temperature yesterday: 90 °F

High & Low Weather Summary for the Past Weeks

 TemperatureHumidityPressure
High99 °F (May 1, 1:00 PM)100% (Apr 20, 12:00 AM)29.95 "Hg (Apr 20, 12:00 AM)
Low79 °F (Apr 23, 6:00 AM)18% (Apr 20, 1:00 AM)29.71 "Hg (Apr 27, 3:00 PM)
Average88 °F63%29.84 "Hg
* Reported Apr 19 3:00 PM — May 4 3:00 PM, Makati, Weather by CustomWeather, © 2016

Note: Actual official high and low records may vary slightly from our data, if they occured in-between our weather recording intervals... More about our weather records

Advertising

Makati Weather History for the Previous 24 Hours

Scroll right to see more
 ConditionsComfort  
Time TempWeatherWind HumidityBarometerVisibility
3:00 PM
Wed, May 4
97 °FPassing clouds.13 mph44%29.77 "HgN/A
2:00 PM97 °FPassing clouds.12 mph44%29.80 "HgN/A
1:00 PM95 °FPassing clouds.12 mph47%29.83 "HgN/A
12:00 PM95 °FPassing clouds.8 mph47%29.86 "HgN/A
11:00 AM93 °FPassing clouds.9 mph49%29.89 "HgN/A
10:00 AM93 °FPassing clouds.6 mph47%29.89 "HgN/A
9:00 AM91 °FPassing clouds.6 mph52%29.92 "HgN/A
8:00 AM88 °FPassing clouds.6 mph62%29.92 "HgN/A
7:00 AM86 °FPassing clouds.5 mph59%29.89 "HgN/A
6:00 AM82 °FScattered clouds.No wind74%29.89 "Hg6 mi
5:00 AM82 °FPassing clouds.2 mph74%29.86 "HgN/A
4:00 AM84 °FPassing clouds.2 mph70%29.86 "HgN/A
3:00 AM84 °FPassing clouds.5 mph70%29.86 "HgN/A
2:00 AM84 °FPassing clouds.5 mph74%29.86 "HgN/A
1:00 AM86 °FPassing clouds.7 mph70%29.86 "HgN/A
12:00 AM86 °FPassing clouds.7 mph70%29.89 "HgN/A
11:00 PM
Tue, May 3
86 °FPassing clouds.9 mph70%29.89 "HgN/A
10:00 PM86 °FPassing clouds.9 mph70%29.86 "HgN/A
9:00 PM88 °FPassing clouds.8 mph66%29.86 "HgN/A
8:00 PM88 °FPassing clouds.9 mph62%29.83 "HgN/A
7:00 PM90 °FPassing clouds.10 mph59%29.80 "HgN/A
6:00 PM91 °FScattered clouds.10 mph56%29.80 "HgN/A
5:00 PM93 °FScattered clouds.10 mph53%29.77 "HgN/A
4:00 PM97 °FScattered clouds.10 mph44%29.77 "HgN/A
Weather by CustomWeather, © 2016

See weather overviewHow to use our weather pages